Wind_Speed
24 22 20 18 17 16 16 14 14 12 12 11 13 11 12 14 14 16 16 7 4 14 8 11 10 14 14 11 7 7 5 11 14 11 8 3 3 9 8 15 12 9 14 17 21
25 24 22 21 19 16 14 13 12 10 11 10 10 10 10 12 14 12 3 5 7 11 15 9 11 14 8 8 7 7 6 9 4 5 6 6 7 14 11 17 19 22 17 14 17
26 26 23 21 19 16 13 12 11 9 9 9 8 9 8 9 7 2 5 2 9 15 13 9 10 10 5 5 6 5 8 4 3 6 8 5 7 11 15 18 19 21 21 19 17
28 27 24 21 18 16 14 12 11 10 9 8 8 6 7 4 2 0 3 4 12 14 15 12 10 7 4 7 6 4 5 10 10 16 19 17 19 22 25 27 21 24 26 26 25
30 28 24 21 18 16 15 12 11 10 9 9 7 5 4 4 6 4 4 6 10 10 11 10 11 6 5 4 6 5 3 6 11 13 15 18 19 21 26 21 24 25 26 26 26
30 30 27 23 19 16 14 12 11 10 10 10 9 6 4 5 4 5 7 7 6 9 11 12 6 4 5 4 4 6 3 4 4 8 9 10 16 10 7 11 19 18 21 23 24
27 28 28 26 21 17 15 13 12 13 12 11 9 8 10 10 5 5 9 7 6 10 14 8 5 3 4 4 3 0 3 4 7 6 6 7 15 9 15 13 17 19 19 21 24
27 27 27 26 25 20 16 15 16 15 13 11 9 9 7 4 7 8 10 8 9 10 8 7 2 0 1 5 3 1 1 3 2 5 5 5 20 8 7 12 16 18 18 20 16
29 30 28 27 25 25 16 16 17 13 11 9 8 6 6 1 2 9 10 7 8 7 5 5 3 2 3 3 1 2 3 1 5 5 6 6 13 7 20 23 16 18 20 22 23
30 30 32 28 26 25 18 13 16 15 8 6 9 4 3 3 4 3 11 11 6 5 5 4 3 3 3 4 4 2 2 3 7 3 8 17 19 18 20 20 18 16 18 21 23
30 30 33 32 28 25 18 9 7 5 6 9 10 12 16 8 2 6 8 14 6 2 5 2 5 8 8 7 3 3 4 7 11 12 6 13 16 16 21 20 17 17 16 20 22
30 33 32 34 29 24 12 5 4 7 11 20 20 22 22 10 4 6 8 8 6 6 3 3 10 10 6 5 6 6 7 9 9 10 5 13 19 14 15 17 21 21 21 18 20
31 33 34 34 26 11 8 4 3 9 5 7 5 5 7 15 7 8 13 9 5 7 7 9 2 7 8 7 7 8 7 9 10 9 10 14 20 12 10 13 19 23 23 20 18
32 32 34 34 14 11 6 7 3 6 3 4 2 3 9 7 4 15 16 9 4 8 7 7 5 6 5 6 7 7 7 7 7 9 12 8 17 18 15 20 18 20 21 23 21
32 32 33 26 17 8 4 3 3 0 1 2 3 4 8 6 2 2 15 11 10 7 5 2 4 5 4 3 8 7 3 7 9 13 15 16 14 14 7 14 15 15 22 24 24
34 32 29 15 10 2 8 1 4 2 2 2 4 3 3 3 1 4 3 5 2 7 7 10 2 3 2 3 4 2 4 10 6 7 12 17 16 8 12 16 15 16 21 22 17
37 27 15 8 4 9 4 4 1 3 6 4 4 4 2 2 2 2 4 6 6 4 9 8 9 4 5 8 3 1 5 8 7 7 11 7 13 14 20 15 19 21 25 16 11
35 13 7 5 7 3 4 2 2 2 4 7 7 7 5 5 3 3 2 3 1 4 7 5 6 4 3 1 2 2 3 5 12 14 19 16 10 8 15 12 18 17 7 7 9
24 9 9 5 8 4 2 1 1 2 5 8 9 3 8 4 6 5 4 4 1 4 5 4 3 1 2 3 2 4 4 1 7 14 12 8 16 18 7 13 19 18 18 17 13
19 4 15 6 4 3 3 1 1 8 7 4 2 1 3 5 8 7 6 2 3 0 2 2 4 1 2 3 7 2 5 3 2 5 9 9 17 11 7 11 13 18 20 18 21
12 3 13 2 2 3 1 0 3 4 10 8 5 6 6 6 3 3 2 0 1 3 2 4 3 1 1 5 8 3 4 2 1 3 5 8 7 3 9 12 14 12 16 17 17
11 1 13 0 1 2 1 4 6 8 9 5 9 7 8 4 6 6 10 1 5 2 1 2 2 5 10 1 4 5 8 9 5 5 5 3 15 12 13 5 9 12 11 13 17
13 6 10 2 2 3 5 4 4 4 2 2 6 6 4 3 5 1 3 3 1 2 3 5 2 4 3 3 3 5 8 10 5 1 12 10 10 1 6 16 28 20 14 12 15
8 4 7 11 8 5 6 3 3 9 6 4 6 5 4 4 2 4 4 4 2 2 2 8 5 11 10 10 2 6 9 11 11 8 14 18 29 23 21 22 22 20 18 21 24
9 3 4 4 4 7 3 4 8 4 3 5 4 6 6 3 5 5 10 5 3 1 4 4 7 7 11 12 12 15 17 16 17 18 16 23 23 23 21 17 14 18 21 24 27
3 3 3 4 7 7 3 2 9 5 2 1 5 7 7 6 7 13 16 14 9 3 4 2 3 3 10 12 13 14 16 16 17 18 20 19 21 17 14 23 25 25 27 31 32
2 2 2 1 3 4 3 5 8 11 6 6 6 8 9 11 10 22 21 18 12 5 6 3 3 2 4 4 11 13 4 3 5 7 9 15 20 14 20 18 24 30 33 38 39
Wind_Direction
3 358 351 346 341 333 321 313 307 300 298 305 306 309 308 303 292 289 289 278 229 199 167 142 154 177 182 176 172 162 219 236 229 224 229 209 351 286 295 286 287 284 291 311 331
7 3 357 350 347 346 338 325 318 311 305 305 310 313 312 306 299 297 292 267 217 199 175 152 141 150 147 165 172 198 218 233 238 247 256 276 282 288 288 281 282 286 279 304 329
9 5 1 356 353 354 352 343 333 326 317 314 318 317 311 317 321 338 329 238 171 160 176 162 154 152 133 151 172 174 231 207 231 243 265 273 264 262 274 272 276 275 290 296 294
9 5 2 360 0 360 359 357 347 339 331 326 321 319 312 310 171 292 45 122 157 147 152 153 160 140 144 172 174 206 207 223 260 251 260 265 271 264 261 267 269 275 283 288 285
9 7 5 1 359 359 359 1 359 352 344 334 325 315 307 274 245 173 120 142 171 178 178 171 155 145 161 166 155 209 241 244 258 270 263 264 252 255 268 270 269 269 273 273 274
10 9 7 1 356 353 351 352 353 351 349 334 323 309 291 259 191 200 166 158 175 177 172 157 158 139 121 149 190 172 217 275 269 265 251 254 258 248 267 284 276 267 267 268 263
7 5 3 1 352 343 340 338 337 328 324 329 315 304 283 255 203 179 171 166 161 161 166 148 110 136 147 150 149 119 308 300 232 258 262 261 261 233 262 283 272 273 272 278 266
358 356 355 353 352 339 324 322 324 314 307 304 303 303 262 231 200 194 182 175 166 170 162 153 158 26 172 118 64 151 130 290 359 316 274 209 274 259 287 331 306 295 288 284 282
350 349 344 343 340 342 318 309 318 311 303 290 282 306 277 131 161 208 203 184 177 181 180 180 247 139 133 140 191 34 251 270 306 238 280 240 292 306 303 303 291 291 286 286 286
342 341 340 335 331 332 320 300 311 307 294 280 268 287 239 131 328 230 213 202 155 146 132 148 138 166 126 209 269 180 266 233 275 264 282 287 284 286 289 283 280 275 282 285 287
335 338 334 334 324 327 317 288 319 307 276 238 270 267 274 291 274 176 192 204 200 173 192 86 221 224 227 221 259 253 252 271 275 277 267 272 281 283 284 290 281 270 263 272 277
331 331 333 330 325 324 306 237 241 299 296 288 267 255 251 242 313 192 175 161 168 198 139 224 260 245 205 190 214 232 272 276 273 270 227 288 286 287 264 267 271 273 274 266 273
328 330 330 329 325 323 321 206 248 320 288 296 255 236 214 209 217 216 175 173 179 189 203 233 189 104 183 208 233 256 247 281 291 310 279 285 282 269 258 258 262 262 270 271 262
329 330 329 327 325 318 308 177 282 320 324 277 262 176 152 164 218 225 197 174 189 227 198 248 238 237 193 222 212 275 223 255 274 305 303 351 293 273 273 272 265 263 264 269 271
329 329 326 324 308 307 165 163 304 110 38 80 82 149 167 184 147 159 199 201 207 185 184 178 185 171 200 238 185 292 254 269 280 287 294 280 271 292 276 268 266 270 266 267 270
332 330 321 323 326 163 167 202 142 211 259 42 115 153 159 252 291 123 154 201 208 226 229 263 208 231 233 148 225 314 285 285 278 283 262 274 258 294 295 290 293 274 268 264 259
337 332 321 314 123 133 144 145 166 236 332 25 6 346 317 253 185 175 165 182 221 215 248 250 247 266 242 260 144 139 321 298 274 249 275 331 303 277 303 309 305 303 283 282 304
346 353 40 106 156 132 135 140 210 1 0 354 341 346 14 349 13 10 152 226 178 226 263 263 268 186 129 130 275 280 256 269 288 292 296 308 266 277 336 2 347 331 302 14 5
356 42 40 94 123 73 115 198 87 21 0 333 324 199 191 177 2 353 356 313 278 186 217 197 257 95 71 151 211 143 229 48 284 275 279 249 271 282 50 19 4 7 7 347 338
355 46 24 110 91 29 80 249 87 51 353 343 322 37 276 213 197 208 218 196 181 45 279 171 266 353 72 149 62 253 137 221 205 274 275 280 286 260 327 341 345 350 347 346 352
1 55 5 199 15 41 70 314 318 57 38 6 327 298 282 210 240 218 231 74 351 140 92 153 243 243 276 210 261 190 198 177 280 255 276 296 278 211 277 313 313 334 323 333 333
4 54 6 269 348 34 69 336 335 354 4 321 314 262 263 302 318 265 253 143 347 188 171 72 197 246 260 124 284 243 246 217 230 204 228 287 277 277 279 246 316 308 301 326 321
348 321 10 23 15 30 339 333 314 324 290 279 244 312 307 239 213 20 28 6 174 186 188 176 209 277 243 159 152 207 202 222 233 279 257 269 264 55 278 287 307 303 302 305 310
3 344 6 54 59 17 354 301 327 330 300 252 298 306 309 282 220 233 204 305 276 263 193 173 220 244 256 289 227 248 242 229 245 262 274 259 280 288 293 297 304 299 310 317 319
15 64 12 355 347 337 292 299 304 304 17 26 293 268 353 268 320 284 286 255 219 209 129 213 249 230 256 266 265 271 273 264 251 257 257 276 287 300 311 313 314 305 307 311 313
37 10 340 315 311 304 288 269 288 352 352 311 230 270 277 254 266 279 298 287 263 177 177 181 240 257 280 274 278 278 272 267 263 266 265 274 285 283 305 314 309 309 310 309 308
345 311 330 300 332 316 296 3 325 337 280 247 287 291 267 270 268 273 282 272 259 218 184 198 209 268 276 311 305 279 327 256 253 261 278 282 296 318 307 314 310 308 304 300 299
Height
1513 1510 1506 1503 1500 1497 1495 1493 1492 1491 1490 1489 1488 1487 1486 1484 1481 1478 1477 1477 1477 1478 1480 1482 1484 1487 1493 1496 1499 1499 1502 1499 1499 1501 1501 1502 1505 1501 1503 1501 1500 1498 1495 1496 1492
1513 1509 1505 1501 1498 1495 1493 1491 1490 1489 1488 1487 1486 1485 1484 1481 1478 1475 1476 1474 1474 1475 1480 1483 1484 1487 1491 1495 1497 1498 1499 1500 1500 1497 1500 1503 1505 1502 1500 1499 1497 1497 1494 1494 1492
1512 1507 1503 1500 1497 1493 1491 1489 1488 1487 1486 1485 1484 1484 1482 1480 1478 1475 1473 1473 1474 1475 1480 1483 1486 1487 1490 1493 1496 1497 1495 1499 1498 1495 1498 1500 1500 1498 1495 1493 1496 1494 1490 1490 1491
1511 1507 1503 1499 1495 1493 1490 1488 1487 1486 1484 1484 1483 1482 1481 1481 1479 1475 1474 1472 1474 1477 1480 1482 1485 1486 1489 1490 1494 1497 1496 1495 1495 1495 1496 1497 1497 1491 1490 1488 1494 1491 1488 1485 1485
1512 1507 1502 1499 1495 1492 1490 1488 1487 1485 1484 1483 1482 1481 1480 1481 1477 1476 1475 1475 1476 1478 1480 1482 1484 1486 1487 1490 1493 1494 1492 1492 1492 1493 1492 1492 1491 1488 1481 1486 1485 1485 1483 1482 1480
1512 1507 1503 1499 1496 1493 1490 1487 1486 1485 1483 1481 1480 1480 1480 1480 1475 1475 1476 1477 1478 1478 1479 1481 1483 1484 1487 1489 1489 1491 1491 1489 1489 1489 1489 1485 1482 1483 1480 1479 1477 1478 1478 1476 1475
1512 1507 1503 1499 1496 1493 1490 1487 1484 1483 1482 1480 1479 1477 1476 1474 1473 1473 1475 1476 1478 1480 1481 1483 1484 1486 1486 1488 1489 1489 1487 1487 1486 1486 1482 1480 1475 1477 1476 1474 1473 1470 1472 1471 1471
1512 1507 1502 1498 1495 1491 1488 1486 1483 1480 1479 1478 1477 1476 1471 1470 1471 1472 1474 1476 1477 1479 1482 1483 1484 1485 1486 1487 1487 1487 1489 1487 1483 1483 1480 1481 1469 1471 1472 1473 1471 1467 1467 1467 1466
1510 1506 1501 1496 1492 1489 1486 1484 1481 1478 1477 1476 1476 1475 1469 1469 1470 1471 1473 1475 1477 1479 1480 1482 1484 1485 1486 1486 1488 1490 1487 1491 1487 1482 1481 1479 1470 1469 1468 1468 1466 1464 1462 1462 1461
1508 1503 1498 1494 1488 1485 1482 1480 1478 1475 1474 1474 1474 1476 1469 1469 1469 1469 1471 1474 1476 1478 1480 1480 1481 1481 1484 1483 1485 1488 1490 1490 1489 1479 1479 1475 1469 1466 1464 1463 1461 1461 1460 1459 1457
1504 1499 1495 1490 1485 1481 1479 1478 1479 1477 1472 1470 1469 1467 1466 1467 1467 1468 1469 1472 1475 1477 1476 1479 1478 1478 1479 1481 1483 1486 1488 1488 1481 1477 1481 1473 1467 1464 1461 1459 1457 1456 1456 1454 1452
1501 1495 1491 1485 1480 1477 1474 1474 1474 1476 1468 1462 1460 1462 1463 1465 1467 1466 1468 1472 1474 1474 1477 1479 1477 1475 1478 1481 1484 1485 1486 1482 1478 1474 1477 1466 1461 1460 1459 1454 1451 1450 1448 1448 1447
1497 1492 1486 1480 1475 1473 1472 1472 1473 1472 1470 1459 1457 1457 1458 1463 1464 1464 1466 1468 1470 1473 1474 1475 1473 1474 1477 1478 1480 1477 1480 1476 1476 1471 1466 1461 1451 1449 1448 1447 1446 1444 1443 1442 1443
1493 1488 1482 1475 1473 1471 1470 1470 1471 1470 1470 1459 1457 1456 1458 1459 1462 1461 1463 1467 1469 1469 1473 1473 1471 1472 1474 1475 1475 1477 1471 1472 1473 1472 1470 1465 1447 1439 1442 1438 1437 1438 1439 1439 1438
1489 1484 1478 1473 1470 1468 1470 1470 1471 1471 1472 1456 1456 1457 1458 1460 1459 1458 1461 1464 1464 1467 1471 1467 1468 1470 1470 1469 1471 1470 1470 1470 1469 1467 1465 1461 1453 1437 1435 1435 1436 1435 1434 1432 1431
1483 1478 1471 1469 1467 1467 1468 1470 1471 1475 1474 1455 1456 1457 1459 1458 1457 1458 1461 1463 1463 1465 1467 1464 1466 1466 1465 1468 1469 1469 1469 1467 1470 1465 1463 1450 1448 1437 1432 1429 1427 1427 1426 1424 1423
1478 1471 1466 1466 1468 1467 1469 1470 1474 1475 1459 1462 1459 1458 1457 1457 1457 1457 1458 1461 1462 1467 1463 1459 1461 1462 1464 1465 1468 1469 1470 1468 1463 1457 1453 1450 1451 1435 1432 1433 1430 1426 1424 1423 1421
1474 1468 1466 1466 1467 1468 1469 1471 1476 1469 1465 1461 1459 1456 1462 1462 1460 1459 1460 1461 1463 1464 1463 1467 1466 1462 1463 1463 1466 1469 1472 1477 1475 1463 1453 1457 1451 1432 1433 1439 1435 1429 1428 1424 1422
1473 1470 1468 1469 1469 1470 1470 1472 1469 1470 1468 1466 1460 1461 1463 1467 1467 1463 1464 1462 1461 1462 1465 1467 1468 1464 1464 1466 1468 1474 1473 1477 1476 1469 1467 1449 1438 1431 1436 1435 1434 1432 1431 1429 1423
1473 1472 1471 1471 1471 1471 1470 1474 1471 1472 1470 1466 1467 1463 1469 1464 1471 1469 1464 1460 1461 1463 1463 1465 1468 1465 1465 1465 1470 1469 1473 1479 1486 1481 1462 1441 1437 1434 1433 1432 1433 1433 1432 1430 1425
1474 1474 1475 1472 1472 1471 1472 1474 1472 1472 1471 1471 1467 1467 1464 1464 1464 1463 1462 1462 1462 1464 1464 1465 1467 1467 1467 1464 1463 1472 1473 1478 1482 1486 1470 1455 1432 1434 1432 1431 1430 1428 1433 1429 1426
1476 1475 1476 1473 1475 1477 1476 1477 1475 1471 1471 1473 1472 1465 1464 1464 1464 1467 1463 1461 1463 1463 1463 1469 1467 1468 1463 1465 1466 1466 1467 1469 1473 1474 1477 1475 1439 1429 1427 1432 1432 1431 1429 1426 1425
1482 1479 1476 1473 1476 1480 1480 1477 1476 1473 1473 1474 1473 1467 1464 1462 1466 1464 1462 1463 1464 1463 1464 1468 1470 1469 1462 1467 1467 1465 1465 1465 1467 1472 1467 1467 1435 1427 1431 1427 1427 1427 1426 1424 1422
1486 1484 1481 1480 1486 1488 1486 1479 1477 1476 1475 1474 1473 1468 1466 1463 1464 1464 1467 1465 1464 1463 1464 1465 1465 1463 1461 1454 1461 1463 1461 1461 1462 1464 1453 1444 1429 1428 1427 1424 1422 1421 1420 1416 1413
1491 1494 1494 1489 1487 1490 1489 1483 1479 1476 1475 1475 1475 1472 1474 1468 1466 1464 1465 1463 1463 1463 1465 1466 1462 1463 1459 1458 1458 1456 1454 1454 1454 1450 1452 1433 1434 1426 1425 1422 1421 1420 1416 1412 1408
1494 1495 1494 1493 1492 1489 1485 1480 1477 1478 1480 1477 1478 1477 1477 1477 1471 1470 1466 1465 1462 1463 1463 1466 1461 1462 1457 1453 1451 1450 1445 1444 1443 1442 1441 1437 1431 1428 1426 1423 1419 1416 1413 1408 1404
1493 1493 1493 1492 1490 1489 1484 1483 1481 1484 1480 1477 1477 1477 1475 1472 1472 1468 1466 1463 1460 1458 1460 1461 1461 1461 1453 1452 1450 1441 1439 1441 1440 1440 1439 1435 1424 1424 1423 1421 1416 1412 1408 1400 1395